Time,TemperatureF,DewpointF,PressureIn,WindDirection,WindDirectionDegrees,WindSpeedMPH,WindSpeedGustMPH,Humidity,HourlyPrecipIn,Conditions,Clouds,dailyrainin,SolarRadiationWatts/m^2,SoftwareType,DateUTC
2013-03-10 05:25:00,12.3,6.2,30.20,WNW,295,4.0,14.0,76,0.00,,,0.00,0,Wunderground v.1.15,2013-03-10 11:25:00,
2013-03-10 05:35:00,12.6,6.2,30.18,NW,312,5.0,5.0,75,0.00,,,0.00,0,Wunderground v.1.15,2013-03-10 11:35:00,
2013-03-10 05:40:00,12.6,5.9,30.18,WNW,299,4.0,16.0,74,0.00,,,0.00,0,Wunderground v.1.15,2013-03-10 11:40:00,
2013-03-10 05:50:00,12.8,6.1,30.18,SSW,209,4.0,16.0,74,0.00,,,0.00,0,Wunderground v.1.15,2013-03-10 11:50:00,
2013-03-10 06:00:00,12.8,5.8,30.18,WSW,253,3.0,3.0,73,0.00,,,0.00,0,Wunderground v.1.15,2013-03-10 12:00:00,
2013-03-10 06:06:00,12.8,5.8,30.19,WNW,294,3.0,16.0,73,0.00,,,0.00,0,Wunderground v.1.15,2013-03-10 12:06:00,
2013-03-10 06:15:00,12.8,5.8,30.19,NW,306,2.0,7.0,73,0.00,,,0.00,0,Wunderground v.1.15,2013-03-10 12:15:00,
2013-03-10 06:25:00,12.8,5.8,30.21,West,280,2.0,6.0,73,0.00,,,0.00,0,Wunderground v.1.15,2013-03-10 12:25:00,
2013-03-10 06:35:00,12.8,5.5,30.21,SSE,160,2.0,2.0,72,0.00,,,0.00,0,Wunderground v.1.15,2013-03-10 12:35:00,
2013-03-10 06:40:00,12.8,5.8,30.21,NW,305,2.0,9.0,73,0.00,,,0.00,0,Wunderground v.1.15,2013-03-10 12:40:00,
2013-03-10 06:50:00,12.6,5.3,30.20,West,272,3.0,3.0,72,0.00,,,0.00,0,Wunderground v.1.15,2013-03-10 12:50:00,
2013-03-10 07:00:00,12.4,4.8,30.20,NNW,333,1.0,1.0,71,0.00,,,0.00,0,Wunderground v.1.15,2013-03-10 13:00:00,
2013-03-10 07:06:00,12.4,4.8,30.21,WSW,257,1.0,9.0,71,0.00,,,0.00,0,Wunderground v.1.15,2013-03-10 13:06:00,
2013-03-10 07:15:00,12.3,5.0,30.21,West,277,1.0,13.0,72,0.00,,,0.00,0,Wunderground v.1.15,2013-03-10 13:15:00,
2013-03-10 07:20:00,12.3,5.3,30.23,WSW,241,2.0,13.0,73,0.00,,,0.00,0,Wunderground v.1.15,2013-03-10 13:20:00,
2013-03-10 07:25:00,12.3,5.3,30.23,West,263,4.0,13.0,73,0.00,,,0.00,0,Wunderground v.1.15,2013-03-10 13:25:00,
2013-03-10 07:35:00,12.3,5.3,30.23,SW,234,4.0,13.0,73,0.00,,,0.00,0,Wunderground v.1.15,2013-03-10 13:35:00,
2013-03-10 07:45:00,12.6,5.6,30.23,WSW,246,3.0,11.0,73,0.00,,,0.00,0,Wunderground v.1.15,2013-03-10 13:45:00,
2013-03-10 07:50:00,12.8,5.8,30.23,WSW,250,4.0,11.0,73,0.00,,,0.00,0,Wunderground v.1.15,2013-03-10 13:50:00,
2013-03-10 08:00:00,12.9,5.9,30.23,West,263,4.0,11.0,73,0.00,,,0.00,0,Wunderground v.1.15,2013-03-10 14:00:00,
2013-03-10 08:05:00,13.3,6.3,30.24,SW,220,3.0,11.0,73,0.00,,,0.00,0,Wunderground v.1.15,2013-03-10 14:05:00,
2013-03-10 08:15:00,13.8,6.7,30.24,SW,227,6.0,9.0,73,0.00,,,0.00,5,Wunderground v.1.15,2013-03-10 14:15:00,
2013-03-10 08:20:00,14.0,6.9,30.24,SW,234,6.0,15.0,73,0.00,,,0.00,5,Wunderground v.1.15,2013-03-10 14:20:00,
2013-03-10 08:30:00,14.6,7.2,30.24,SW,219,6.0,15.0,72,0.00,,,0.00,7,Wunderground v.1.15,2013-03-10 14:30:00,
2013-03-10 08:35:00,14.9,7.8,30.24,SW,233,7.0,15.0,73,0.00,,,0.00,7,Wunderground v.1.15,2013-03-10 14:35:00,
2013-03-10 08:45:00,15.7,8.6,30.24,SSW,212,8.0,15.0,73,0.00,,,0.00,9,Wunderground v.1.15,2013-03-10 14:45:00,
2013-03-10 08:50:00,16.2,9.1,30.21,SW,216,8.0,8.0,73,0.00,,,0.00,9,Wunderground v.1.15,2013-03-10 14:50:00,
2013-03-10 08:55:00,16.5,9.0,30.21,WSW,256,7.0,9.0,72,0.00,,,0.00,9,Wunderground v.1.15,2013-03-10 14:55:00,
2013-03-10 09:06:00,17.5,9.7,30.22,SSW,213,7.0,15.0,71,0.00,,,0.00,12,Wunderground v.1.15,2013-03-10 15:06:00,
2013-03-10 09:15:00,18.1,9.6,30.22,WSW,250,7.0,17.0,69,0.00,,,0.00,28,Wunderground v.1.15,2013-03-10 15:15:00,
2013-03-10 09:25:00,18.9,10.4,30.22,SW,227,6.0,17.0,69,0.00,,,0.00,62,Wunderground v.1.15,2013-03-10 15:25:00,
2013-03-10 09:30:00,19.5,11.0,30.22,SW,224,7.0,17.0,69,0.00,,,0.00,26,Wunderground v.1.15,2013-03-10 15:30:00,
2013-03-10 09:40:00,20.8,11.9,30.20,South,178,7.0,17.0,68,0.00,,,0.00,18,Wunderground v.1.15,2013-03-10 15:40:00,
2013-03-10 09:50:00,22.1,12.1,30.18,SW,234,6.0,17.0,65,0.00,,,0.00,135,Wunderground v.1.15,2013-03-10 15:50:00,
2013-03-10 10:00:00,22.5,10.7,30.18,SW,229,7.0,17.0,60,0.00,,,0.00,79,Wunderground v.1.15,2013-03-10 16:00:00,
2013-03-10 10:05:00,22.4,9.8,30.18,WSW,257,7.0,17.0,58,0.00,,,0.00,137,Wunderground v.1.15,2013-03-10 16:05:00,
2013-03-10 10:11:00,22.9,10.3,30.18,SSW,209,7.0,7.0,58,0.00,,,0.00,135,Wunderground v.1.15,2013-03-10 16:11:00,
2013-03-10 10:20:00,24.1,11.4,30.19,SSW,198,6.0,6.0,58,0.00,,,0.00,155,Wunderground v.1.15,2013-03-10 16:20:00,
2013-03-10 10:25:00,24.8,11.3,30.19,WSW,240,5.0,16.0,56,0.00,,,0.00,162,Wunderground v.1.15,2013-03-10 16:25:00,
2013-03-10 10:35:00,25.1,10.8,30.18,WSW,254,6.0,16.0,54,0.00,,,0.00,25,Wunderground v.1.15,2013-03-10 16:35:00,
2013-03-10 10:45:00,25.7,12.2,30.18,West,263,5.0,14.0,56,0.00,,,0.00,19,Wunderground v.1.15,2013-03-10 16:45:00,
2013-03-10 10:50:00,26.0,12.0,30.16,West,260,4.0,4.0,55,0.00,,,0.00,16,Wunderground v.1.15,2013-03-10 16:50:00,
2013-03-10 11:00:00,26.6,12.2,30.16,NNW,335,2.0,2.0,54,0.00,,,0.00,16,Wunderground v.1.15,2013-03-10 17:00:00,
2013-03-10 11:06:00,26.7,12.7,30.17,NNW,335,1.0,14.0,55,0.00,,,0.00,19,Wunderground v.1.15,2013-03-10 17:06:00,
2013-03-10 11:15:00,27.0,13.4,30.17,WSW,246,6.0,11.0,56,0.00,,,0.00,114,Wunderground v.1.15,2013-03-10 17:15:00,
2013-03-10 11:20:00,27.0,13.4,30.19,West,280,7.0,7.0,56,0.00,,,0.00,213,Wunderground v.1.15,2013-03-10 17:20:00,
2013-03-10 11:30:00,28.1,14.0,30.19,WSW,243,2.0,2.0,55,0.00,,,0.00,238,Wunderground v.1.15,2013-03-10 17:30:00,
2013-03-10 11:35:00,29.7,14.6,30.15,WSW,257,2.0,4.0,53,0.00,,,0.00,299,Wunderground v.1.15,2013-03-10 17:35:00,
2013-03-10 11:40:00,30.6,15.0,30.15,SW,234,3.0,15.0,52,0.00,,,0.00,530,Wunderground v.1.15,2013-03-10 17:40:00,
2013-03-10 11:50:00,30.9,15.8,30.15,WNW,287,1.0,15.0,53,0.00,,,0.00,980,Wunderground v.1.15,2013-03-10 17:50:00,
2013-03-10 12:00:00,32.8,15.7,30.15,North,359,4.0,4.0,49,0.00,,,0.00,908,Wunderground v.1.15,2013-03-10 18:00:00,
2013-03-10 12:06:00,32.5,15.4,30.12,North,353,3.0,15.0,49,0.00,,,0.00,885,Wunderground v.1.15,2013-03-10 18:06:00,
2013-03-10 12:15:00,32.9,18.1,30.12,NW,323,5.0,14.0,54,0.00,,,0.00,818,Wunderground v.1.15,2013-03-10 18:15:00,
2013-03-10 12:25:00,32.5,16.4,30.14,NNW,335,6.0,14.0,51,0.21,,,0.02,67,Wunderground v.1.15,2013-03-10 18:25:00,
2013-03-10 12:30:00,32.9,16.3,30.14,NW,309,5.0,5.0,50,0.08,,,0.02,69,Wunderground v.1.15,2013-03-10 18:30:00,
2013-03-10 12:40:00,31.9,15.8,30.14,WSW,241,3.0,3.0,51,0.06,,,0.03,69,Wunderground v.1.15,2013-03-10 18:40:00,
2013-03-10 12:50:00,32.2,15.6,30.16,WNW,294,5.0,5.0,50,0.06,,,0.04,86,Wunderground v.1.15,2013-03-10 18:50:00,
2013-03-10 13:00:00,31.5,14.5,30.16,SE,133,3.0,14.0,49,0.00,,,0.04,69,Wunderground v.1.15,2013-03-10 19:00:00,
2013-03-10 13:06:00,31.9,14.4,30.16,South,172,4.0,14.0,48,0.00,,,0.04,67,Wunderground v.1.15,2013-03-10 19:06:00,
2013-03-10 13:15:00,32.7,17.4,30.16,South,174,3.0,15.0,53,0.00,,,0.04,74,Wunderground v.1.15,2013-03-10 19:15:00,
2013-03-10 13:25:00,32.4,14.9,30.15,North,356,3.0,15.0,48,0.00,,,0.05,151,Wunderground v.1.15,2013-03-10 19:25:00,
2013-03-10 13:35:00,32.1,16.4,30.17,SSW,195,4.0,4.0,52,0.00,,,0.05,81,Wunderground v.1.15,2013-03-10 19:35:00,
2013-03-10 13:45:00,31.9,14.4,30.17,East,97,4.0,7.0,48,0.04,,,0.06,81,Wunderground v.1.15,2013-03-10 19:45:00,
2013-03-10 13:50:00,32.1,16.0,30.17,SW,217,3.0,3.0,51,0.04,,,0.06,74,Wunderground v.1.15,2013-03-10 19:50:00,
2013-03-10 14:00:00,32.4,17.2,30.17,ESE,119,6.0,14.0,53,0.00,,,0.06,118,Wunderground v.1.15,2013-03-10 20:00:00,
2013-03-10 14:05:00,31.5,14.5,30.17,SE,134,7.0,14.0,49,0.00,,,0.06,91,Wunderground v.1.15,2013-03-10 20:05:00,
2013-03-10 14:15:00,31.6,16.0,30.17,West,267,5.0,22.0,52,0.00,,,0.07,104,Wunderground v.1.15,2013-03-10 20:15:00,
2013-03-10 14:20:00,30.9,15.3,30.20,West,263,9.0,22.0,52,0.00,,,0.07,113,Wunderground v.1.15,2013-03-10 20:20:00,
2013-03-10 14:30:00,30.6,15.9,30.20,WSW,243,8.0,8.0,54,0.00,,,0.07,172,Wunderground v.1.15,2013-03-10 20:30:00,
2013-03-10 14:40:00,31.0,15.4,30.21,NNW,332,8.0,24.0,52,0.00,,,0.08,118,Wunderground v.1.15,2013-03-10 20:40:00,
2013-03-10 14:50:00,32.4,15.8,30.20,NNW,339,7.0,7.0,50,0.00,,,0.08,176,Wunderground v.1.15,2013-03-10 20:50:00,
2013-03-10 14:55:00,32.2,15.2,30.20,WNW,296,6.0,24.0,49,0.00,,,0.08,123,Wunderground v.1.15,2013-03-10 20:55:00,
2013-03-10 15:05:00,31.8,13.3,30.21,SSW,199,8.0,9.0,46,0.00,,,0.08,181,Wunderground v.1.15,2013-03-10 21:05:00,
2013-03-10 15:15:00,31.0,14.0,30.21,SW,232,10.0,22.0,49,0.00,,,0.08,118,Wunderground v.1.15,2013-03-10 21:15:00,
2013-03-10 15:25:00,31.9,14.9,30.19,West,263,9.0,22.0,49,0.00,,,0.08,197,Wunderground v.1.15,2013-03-10 21:25:00,
2013-03-10 15:30:00,31.6,15.1,30.19,WSW,256,8.0,22.0,50,0.00,,,0.08,72,Wunderground v.1.15,2013-03-10 21:30:00,
2013-03-10 15:35:00,31.6,14.1,30.19,SW,226,9.0,22.0,48,0.00,,,0.08,91,Wunderground v.1.15,2013-03-10 21:35:00,
2013-03-10 15:45:00,31.5,14.0,30.19,South,185,9.0,22.0,48,0.00,,,0.08,158,Wunderground v.1.15,2013-03-10 21:45:00,
2013-03-10 15:50:00,31.0,13.6,30.20,WNW,289,8.0,22.0,48,0.00,,,0.09,162,Wunderground v.1.15,2013-03-10 21:50:00,
2013-03-10 16:00:00,31.9,14.9,30.20,NNW,347,8.0,8.0,49,0.00,,,0.09,201,Wunderground v.1.15,2013-03-10 22:00:00,
2013-03-10 16:05:00,32.5,15.0,30.19,SSW,209,9.0,13.0,48,0.00,,,0.09,148,Wunderground v.1.15,2013-03-10 22:05:00,
2013-03-10 16:15:00,32.4,13.9,30.19,SSW,192,9.0,21.0,46,0.00,,,0.09,338,Wunderground v.1.15,2013-03-10 22:15:00,
2013-03-10 16:20:00,32.8,14.8,30.17,NNW,330,9.0,9.0,47,0.00,,,0.09,304,Wunderground v.1.15,2013-03-10 22:20:00,
2013-03-10 16:30:00,33.2,14.1,30.17,SW,234,9.0,21.0,45,0.00,,,0.10,514,Wunderground v.1.15,2013-03-10 22:30:00,
2013-03-10 16:40:00,32.9,13.9,30.16,WNW,296,8.0,22.0,45,0.00,,,0.10,491,Wunderground v.1.15,2013-03-10 22:40:00,
2013-03-10 16:50:00,32.2,13.2,30.16,WSW,247,7.0,7.0,45,0.00,,,0.10,60,Wunderground v.1.15,2013-03-10 22:50:00,
2013-03-10 16:55:00,31.5,13.6,30.16,WNW,284,8.0,10.0,47,0.00,,,0.10,97,Wunderground v.1.15,2013-03-10 22:55:00,
2013-03-10 17:06:00,30.7,13.8,30.18,NW,309,10.0,22.0,49,0.00,,,0.11,55,Wunderground v.1.15,2013-03-10 23:06:00,
2013-03-10 17:15:00,31.0,14.0,30.18,WNW,296,8.0,22.0,49,0.00,,,0.11,208,Wunderground v.1.15,2013-03-10 23:15:00,
2013-03-10 17:25:00,30.1,13.7,30.17,West,278,10.0,10.0,50,0.00,,,0.12,84,Wunderground v.1.15,2013-03-10 23:25:00,
2013-03-10 17:35:00,29.5,13.6,30.19,SW,234,9.0,22.0,51,0.00,,,0.12,26,Wunderground v.1.15,2013-03-10 23:35:00,
2013-03-10 17:45:00,29.3,13.4,30.19,SW,232,7.0,20.0,51,0.00,,,0.12,18,Wunderground v.1.15,2013-03-10 23:45:00,
2013-03-10 17:50:00,29.1,13.2,30.19,WNW,299,8.0,8.0,51,0.00,,,0.12,14,Wunderground v.1.15,2013-03-10 23:50:00,
2013-03-10 18:00:00,28.8,13.4,30.19,NW,316,8.0,20.0,52,0.00,,,0.12,11,Wunderground v.1.15,2013-03-11 00:00:00,
2013-03-10 18:05:00,28.5,13.1,30.19,SW,223,8.0,20.0,52,0.00,,,0.12,9,Wunderground v.1.15,2013-03-11 00:05:00,
2013-03-10 18:15:00,27.9,13.0,30.19,WNW,296,10.0,10.0,53,0.00,,,0.12,5,Wunderground v.1.15,2013-03-11 00:15:00,
2013-03-10 18:25:00,27.6,13.1,30.23,NW,309,10.0,20.0,54,0.00,,,0.12,0,Wunderground v.1.15,2013-03-11 00:25:00,
2013-03-10 18:30:00,27.5,13.0,30.23,West,275,10.0,10.0,54,0.00,,,0.12,0,Wunderground v.1.15,2013-03-11 00:30:00,
2013-03-10 18:40:00,27.0,13.0,30.24,WNW,299,9.0,29.0,55,0.00,,,0.12,0,Wunderground v.1.15,2013-03-11 00:40:00,
2013-03-10 18:45:00,26.9,12.9,30.24,NW,308,8.0,29.0,55,0.00,,,0.12,0,Wunderground v.1.15,2013-03-11 00:45:00,
2013-03-10 18:50:00,26.7,12.7,30.25,WNW,287,7.0,29.0,55,0.00,,,0.12,0,Wunderground v.1.15,2013-03-11 00:50:00,
2013-03-10 19:00:00,26.4,12.8,30.25,NW,325,8.0,8.0,56,0.00,,,0.12,0,Wunderground v.1.15,2013-03-11 01:00:00,
2013-03-10 19:06:00,26.3,12.7,30.26,NW,305,8.0,10.0,56,0.00,,,0.12,0,Wunderground v.1.15,2013-03-11 01:06:00,
2013-03-10 19:15:00,26.0,12.4,30.26,WNW,291,8.0,20.0,56,0.00,,,0.12,0,Wunderground v.1.15,2013-03-11 01:15:00,
2013-03-10 19:25:00,25.8,12.6,30.25,WSW,248,5.0,7.0,57,0.00,,,0.12,0,Wunderground v.1.15,2013-03-11 01:25:00,
2013-03-10 19:35:00,25.7,12.9,30.26,NNW,330,5.0,20.0,58,0.00,,,0.12,0,Wunderground v.1.15,2013-03-11 01:35:00,
2013-03-10 19:45:00,25.6,12.9,30.26,WNW,291,7.0,17.0,58,0.00,,,0.12,0,Wunderground v.1.15,2013-03-11 01:45:00,
2013-03-10 19:55:00,25.6,12.9,30.26,WSW,258,8.0,17.0,58,0.00,,,0.12,0,Wunderground v.1.15,2013-03-11 01:55:00,
2013-03-10 20:06:00,25.6,12.9,30.26,NW,320,8.0,17.0,58,0.00,,,0.12,0,Wunderground v.1.15,2013-03-11 02:06:00,
2013-03-10 20:15:00,25.4,13.1,30.26,West,281,8.0,22.0,59,0.00,,,0.12,0,Wunderground v.1.15,2013-03-11 02:15:00,
2013-03-10 20:25:00,25.4,13.1,30.19,NW,309,10.0,22.0,59,0.00,,,0.12,0,Wunderground v.1.15,2013-03-11 02:25:00,
2013-03-10 20:35:00,25.7,12.6,30.19,WSW,246,10.0,11.0,57,0.00,,,0.12,0,Wunderground v.1.15,2013-03-11 02:35:00,
2013-03-10 20:40:00,25.7,12.9,30.19,West,263,10.0,25.0,58,0.00,,,0.12,0,Wunderground v.1.15,2013-03-11 02:40:00,
2013-03-10 20:45:00,25.7,12.6,30.19,West,278,11.0,25.0,57,0.00,,,0.12,0,Wunderground v.1.15,2013-03-11 02:45:00,
2013-03-10 20:55:00,25.7,12.6,30.19,WSW,244,11.0,25.0,57,0.00,,,0.12,0,Wunderground v.1.15,2013-03-11 02:55:00,
2013-03-10 21:06:00,25.8,12.2,30.19,NW,323,12.0,25.0,56,0.00,,,0.12,0,Wunderground v.1.15,2013-03-11 03:06:00,
2013-03-10 21:15:00,25.8,12.6,30.19,WSW,251,10.0,29.0,57,0.00,,,0.12,0,Wunderground v.1.15,2013-03-11 03:15:00,
2013-03-10 21:25:00,25.8,12.2,30.15,WSW,257,10.0,29.0,56,0.00,,,0.12,0,Wunderground v.1.15,2013-03-11 03:25:00,
2013-03-10 21:35:00,25.8,12.2,30.14,SW,226,9.0,14.0,56,0.00,,,0.12,0,Wunderground v.1.15,2013-03-11 03:35:00,
2013-03-10 21:45:00,26.0,12.0,30.14,West,272,11.0,29.0,55,0.00,,,0.12,0,Wunderground v.1.15,2013-03-11 03:45:00,
2013-03-10 21:55:00,26.0,12.4,30.15,SW,233,9.0,14.0,56,0.00,,,0.12,0,Wunderground v.1.15,2013-03-11 03:55:00,
2013-03-10 22:00:00,26.1,12.5,30.15,SSW,195,7.0,29.0,56,0.00,,,0.12,0,Wunderground v.1.15,2013-03-11 04:00:00,
2013-03-10 22:05:00,26.1,12.5,30.16,SW,226,6.0,29.0,56,0.00,,,0.12,0,Wunderground v.1.15,2013-03-11 04:05:00,
2013-03-10 22:15:00,26.1,12.9,30.16,ENE,58,5.0,30.0,57,0.00,,,0.12,0,Wunderground v.1.15,2013-03-11 04:15:00,
2013-03-10 22:20:00,26.0,12.8,30.10,SE,130,4.0,30.0,57,0.00,,,0.12,0,Wunderground v.1.15,2013-03-11 04:20:00,
2013-03-10 22:30:00,25.7,12.6,30.10,WSW,247,4.0,4.0,57,0.00,,,0.12,0,Wunderground v.1.15,2013-03-11 04:30:00,
2013-03-10 22:40:00,25.4,12.7,30.09,SSE,168,7.0,7.0,58,0.00,,,0.12,0,Wunderground v.1.15,2013-03-11 04:40:00,
2013-03-10 22:45:00,25.3,12.6,30.09,NW,323,8.0,8.0,58,0.00,,,0.12,0,Wunderground v.1.15,2013-03-11 04:45:00,
2013-03-10 22:55:00,25.3,12.6,30.09,South,182,9.0,20.0,58,0.00,,,0.12,0,Wunderground v.1.15,2013-03-11 04:55:00,
2013-03-10 23:00:00,25.3,12.2,30.09,WSW,253,8.0,20.0,57,0.00,,,0.12,0,Wunderground v.1.15,2013-03-11 05:00:00,
2013-03-10 23:05:00,25.3,12.6,30.08,WNW,285,10.0,20.0,58,0.00,,,0.12,0,Wunderground v.1.15,2013-03-11 05:05:00,
2013-03-10 23:15:00,25.4,12.3,30.08,WNW,295,9.0,24.0,57,0.00,,,0.12,0,Wunderground v.1.15,2013-03-11 05:15:00,
2013-03-10 23:20:00,25.3,12.2,30.02,South,171,6.0,24.0,57,0.00,,,0.12,0,Wunderground v.1.15,2013-03-11 05:20:00,
2013-03-10 23:30:00,25.4,11.9,30.02,West,274,7.0,24.0,56,0.00,,,0.12,0,Wunderground v.1.15,2013-03-11 05:30:00,
2013-03-10 23:40:00,25.4,11.9,30.01,North,357,6.0,31.0,56,0.00,,,0.12,0,Wunderground v.1.15,2013-03-11 05:40:00,
2013-03-10 23:50:00,25.4,11.9,30.00,West,277,4.0,31.0,56,0.00,,,0.12,0,Wunderground v.1.15,2013-03-11 05:50:00,